FW3278 Weather Reports


Display with metric or nautical units.
time (UTC)temp
F
wind
direction
speed
MPH
gust
MPH
rain 1hr
in
rain 24hr
in
rain mn
in
humidity
%
barometer
mb
20260506005404 58 157 5.0 20.0 0.00 0.00 0.00 67 1019.5
20260506004505 58 157 5.0 16.0 0.00 0.00 0.00 67 1019.5
20260506003604 58 157 4.0 11.0 0.00 0.00 0.00 68 1019.7
20260506002705 57 157 4.0 11.0 0.00 0.00 0.00 69 1019.7
20260506001804 57 157 5.0 10.0 0.00 0.00 0.00 70 1019.9
20260506000904 57 157 4.0 13.0 0.00 0.00 0.00 69 1020.0
20260506000004 57 157 4.0 8.0 0.00 0.00 0.00 70 1020.0
20260505235405 57 157 4.0 8.0 0.00 0.00 0.00 70 1020.0
20260505234505 56 157 5.0 10.0 0.00 0.00 0.00 71 1020.0
20260505233605 56 157 5.0 12.0 0.00 0.00 0.00 71 1020.1
20260505232705 56 157 5.0 13.0 0.00 0.00 0.00 72 1020.2
20260505231804 56 157 4.0 12.0 0.00 0.00 0.00 71 1020.3
20260505230904 56 157 4.0 11.0 0.00 0.00 0.00 72 1020.3
20260505230004 56 157 3.0 6.0 0.00 0.00 0.00 72 1020.4
20260505225404 56 157 4.0 6.0 0.00 0.00 0.00 73 1020.4
20260505224525 55 157 3.0 10.0 0.00 0.00 0.00 72 1020.4
20260505223604 55 157 3.0 6.0 0.00 0.00 0.00 73 1020.4
20260505222704 55 157 3.0 8.0 0.00 0.00 0.00 73 1020.4
20260505221805 55 157 2.0 6.0 0.00 0.00 0.00 72 1020.4
20260505220904 55 157 3.0 6.0 0.00 0.00 0.00 72 1020.4
20260505220004 55 157 3.0 11.0 0.00 0.00 0.00 72 1020.4
20260505215404 55 157 2.0 6.0 0.00 0.00 0.00 72 1020.4
20260505214525 55 157 2.0 5.0 0.00 0.00 0.00 73 1020.4
20260505213604 55 157 2.0 5.0 0.00 0.00 0.00 73 1020.4
20260505212704 55 157 2.0 8.0 0.00 0.00 0.00 73 1020.4
20260505211804 55 157 3.0 8.0 0.00 0.00 0.00 73 1020.4
20260505210904 54 157 2.0 8.0 0.00 0.00 0.00 73 1020.4
20260505210004 54 157 2.0 6.0 0.00 0.00 0.00 74 1020.4
20260505205404 54 157 2.0 6.0 0.00 0.00 0.00 74 1020.4
20260505204504 54 157 2.0 6.0 0.00 0.00 0.00 73 1020.4
20260505203604 55 157 2.0 5.0 0.00 0.00 0.00 74 1020.4
20260505202725 54 157 3.0 6.0 0.00 0.00 0.00 74 1020.3
20260505201804 54 157 3.0 9.0 0.00 0.00 0.00 74 1020.4
20260505200904 54 157 2.0 9.0 0.00 0.00 0.00 74 1020.4
20260505200004 54 157 2.0 4.0 0.00 0.00 0.00 74 1020.4
20260505195404 54 157 2.0 5.0 0.00 0.00 0.00 74 1020.4
20260505194504 54 157 2.0 5.0 0.00 0.00 0.00 75 1020.5
20260505193604 54 157 2.0 6.0 0.00 0.00 0.00 75 1020.5
20260505192704 54 157 2.0 6.0 0.00 0.00 0.00 75 1020.5
20260505191804 54 157 2.0 5.0 0.00 0.00 0.00 75 1020.6
20260505190904 54 157 2.0 4.0 0.00 0.00 0.00 75 1020.6
20260505190004 54 157 2.0 4.0 0.00 0.00 0.00 75 1020.7
20260505185425 54 157 2.0 4.0 0.00 0.00 0.00 75 1020.8
20260505184525 54 157 2.0 5.0 0.00 0.00 0.00 75 1020.7
20260505183604 55 157 2.0 6.0 0.00 0.00 0.00 75 1020.7
20260505182704 55 157 3.0 8.0 0.00 0.00 0.00 75 1020.7
20260505181825 54 157 3.0 8.0 0.00 0.00 0.00 75 1020.6
20260505180904 54 157 3.0 6.0 0.00 0.00 0.00 76 1020.6
20260505180004 54 157 3.0 6.0 0.00 0.00 0.00 76 1020.7
20260505175425 54 157 3.0 8.0 0.00 0.00 0.00 77 1020.7
20260505174504 54 157 3.0 8.0 0.00 0.00 0.00 78 1020.7
20260505173604 54 157 2.0 5.0 0.00 0.00 0.00 79 1020.7
20260505172704 54 157 2.0 4.0 0.00 0.00 0.00 80 1020.8
20260505171825 54 157 1.0 4.0 0.00 0.00 0.00 81 1020.9
20260505170904 54 157 1.0 4.0 0.00 0.00 0.00 81 1021.0
20260505170004 54 157 1.0 4.0 0.00 0.00 0.00 81 1021.0
20260505165404 54 157 2.0 4.0 0.00 0.00 0.00 81 1021.1
20260505164526 54 157 2.0 4.0 0.00 0.00 0.00 81 1021.0
20260505163604 54 157 2.0 5.0 0.00 0.00 0.00 81 1021.2
20260505162705 54 157 1.0 4.0 0.00 0.00 0.00 81 1021.2
20260505161825 54 157 1.0 4.0 0.00 0.00 0.00 81 1021.3
20260505160904 54 157 2.0 4.0 0.00 0.00 0.00 81 1021.4
20260505152704 54 157 2.0 4.0 0.00 0.00 0.00 82 1021.8
20260505151804 54 157 1.0 3.0 0.00 0.00 0.00 82 1021.9
20260505150904 54 157 1.0 4.0 0.00 0.00 0.00 82 1021.9
20260505124504 55 157 1.0 2.0 0.00 0.00 0.00 78 1022.3
20260505123604 55 157 0.0 3.0 0.00 0.00 0.00 78 1022.4
20260505122704 56 157 1.0 2.0 0.00 0.00 0.00 77 1022.4
20260505121804 56 157 1.0 4.0 0.00 0.00 0.00 77 1022.5
20260505120904 56 157 1.0 4.0 0.00 0.00 0.00 77 1022.5
20260505120026 56 157 1.0 3.0 0.00 0.00 0.00 77 1022.6
20260505115404 56 157 1.0 3.0 0.00 0.00 0.00 76 1022.6
20260505114505 56 157 1.0 4.0 0.00 0.00 0.00 76 1022.7
20260505113604 56 157 2.0 5.0 0.00 0.00 0.00 76 1022.7
20260505112704 56 157 2.0 5.0 0.00 0.00 0.00 77 1022.6
20260505111804 55 157 2.0 5.0 0.00 0.00 0.00 77 1022.5
20260505110904 55 157 2.0 4.0 0.00 0.00 0.00 78 1022.5
20260505101804 56 157 1.0 2.0 0.00 0.00 0.00 78 1022.5
20260505095405 56 157 1.0 4.0 0.00 0.00 0.00 78 1022.5
20260505094505 55 157 1.0 3.0 0.00 0.00 0.00 78 1022.5
20260505093604 55 157 1.0 3.0 0.00 0.00 0.00 79 1022.5
20260505092705 55 157 0.0 2.0 0.00 0.00 0.00 79 1022.5
20260505091804 56 0 0.0 0.0 0.00 0.00 0.00 78 1022.5
20260505090905 56 0 0.0 2.0 0.00 0.00 0.00 78 1022.4
20260505090025 56 0 0.0 2.0 0.00 0.00 0.00 78 1022.3
20260505085404 56 0 0.0 2.0 0.00 0.00 0.00 78 1022.3
20260505084504 56 157 0.0 3.0 0.00 0.00 0.00 78 1022.3
20260505083604 56 0 0.0 2.0 0.00 0.00 0.00 77 1022.2
20260505082704 56 157 0.0 2.0 0.00 0.00 0.00 77 1022.1
20260505081804 56 157 1.0 3.0 0.00 0.00 0.00 77 1022.0
20260505080926 56 157 1.0 3.0 0.00 0.00 0.00 76 1021.9
20260505080026 56 157 1.0 3.0 0.00 0.00 0.00 76 1021.8
20260505075404 56 157 0.0 3.0 0.00 0.00 0.00 75 1021.7
20260505074504 56 157 0.0 3.0 0.00 0.00 0.00 75 1021.6
20260505073608 57 157 1.0 3.0 0.00 0.00 0.00 74 1021.6
20260505072704 57 157 1.0 3.0 0.00 0.00 0.00 74 1021.4
20260505071804 57 157 0.0 4.0 0.00 0.00 0.00 73 1021.3
20260505070905 57 157 1.0 2.0 0.00 0.00 0.00 73 1021.3
20260505070004 57 157 1.0 4.0 0.00 0.00 0.00 72 1021.2
20260505065405 57 157 1.0 4.0 0.00 0.00 0.00 72 1021.2
20260505064536 57 157 1.0 3.0 0.00 0.00 0.00 74 1021.2
20260505063605 57 157 1.0 4.0 0.00 0.00 0.00 74 1021.1
20260505062705 57 157 1.0 4.0 0.00 0.00 0.00 75 1021.0
20260505061804 57 157 1.0 4.0 0.00 0.00 0.00 75 1021.0
20260505060904 57 0 0.0 3.0 0.00 0.00 0.00 75 1020.9
20260505060005 57 0 0.0 2.0 0.00 0.00 0.00 75 1020.9
20260505055404 57 0 0.0 2.0 0.00 0.00 0.00 75 1020.9
20260505054525 57 157 1.0 2.0 0.00 0.00 0.00 75 1020.8
20260505053604 57 157 1.0 3.0 0.00 0.00 0.00 74 1020.7
20260505052704 57 157 1.0 5.0 0.00 0.00 0.00 74 1020.7
20260505051804 57 157 1.0 5.0 0.00 0.00 0.00 74 1020.5
20260505050904 57 157 1.0 4.0 0.00 0.00 0.00 74 1020.4
20260505040904 58 157 3.0 6.0 0.00 0.00 0.00 72 1020.1
20260505040005 58 157 2.0 8.0 0.00 0.00 0.00 73 1020.0
20260505035404 57 157 3.0 6.0 0.00 0.00 0.00 73 1019.9
20260505034504 57 157 4.0 11.0 0.00 0.00 0.00 73 1020.0
20260505033604 57 157 3.0 11.0 0.00 0.00 0.00 74 1020.0
20260505032704 57 157 3.0 9.0 0.00 0.00 0.00 74 1019.9
20260505031825 57 157 3.0 6.0 0.00 0.00 0.00 75 1019.9
20260505030925 57 157 3.0 10.0 0.00 0.00 0.00 75 1020.0
20260505030004 57 157 3.0 9.0 0.00 0.00 0.00 74 1019.9
20260505025404 57 157 3.0 9.0 0.00 0.00 0.00 74 1019.9
20260505024504 58 157 3.0 10.0 0.00 0.00 0.00 74 1020.0
20260505023604 58 157 4.0 11.0 0.00 0.00 0.00 73 1019.9
20260505022704 58 157 4.0 10.0 0.00 0.00 0.00 73 1019.9
20260505021825 57 157 4.0 16.0 0.00 0.00 0.00 75 1019.9
20260505020904 57 157 5.0 12.0 0.00 0.00 0.00 76 1020.0
20260505020004 57 157 5.0 12.0 0.00 0.00 0.00 76 1020.1
20260505015404 56 157 5.0 16.0 0.00 0.00 0.00 77 1020.2
20260505014504 56 157 4.0 10.0 0.00 0.00 0.00 78 1020.2
20260505013604 56 157 4.0 12.0 0.00 0.00 0.00 80 1020.2
20260505012725 56 157 4.0 10.0 0.00 0.00 0.00 81 1020.3
20260505011804 56 157 3.0 12.0 0.00 0.00 0.00 81 1020.3
20260505010904 56 157 3.0 10.0 0.00 0.00 0.00 82 1020.3
20260505010004 56 157 4.0 9.0 0.00 0.00 0.00 82 1020.2